STARLINK-37732, 69307

Orbit data source: Space-Track

STARLINK-37732, 69307 is a payload satellite owned by SpaceX/Seattle (US) in SSO that was launched on Sat, 30 May 2026 UTC via an FALCON 9 launch vehicle from the Air Force Western Test Range (AFWTR). Payload-class satellites include a variety of spacecraft equipped with specific instruments for various scientific and technological missions. These include communications satellites like Starlink; space stations such as the ISS; scientific satellites like the Hubble; Earth observation satellites from companies like Planet Labs, Umbra, and HawkEye 360; GPS; miniature CubeSats for education and research; and military/defense satellites.

Loading next visibility...
Identifier
69307, 2026-119M
Orbit
SSO
Country
Flag of USUS
Related business
Manufacturer
SpaceX/Seattle
Mission
Operational Commercial Communications
Bus & Motor
STARLINK V2MO, Unknown motor
Mass
575 kg wet, ~530 kg dry
Launch date (UTC)
2026-05-30 (4 months ago)
Launch vehicle
FALCON 9
Launch site
Air Force Western Test Range (AFWTR)
Object type
Payload
Rocket body
Debris
Shape & HBR
Box + 1 Pan, 17.7 m
Radar Cross Section
41.120 m², Large (>1 m²)

Expand to show TLE details & history
Last TLE update: 19 hours ago

TLE from 19 hours ago
0 STARLINK-37732
1 69307U 26119M   26263.50064271  .00021044  00000-0  65219-3 0  9995
2 69307  97.2838 288.2359 0000368 301.9407  58.1800 15.33452847 18667
Epoch: 2026-09-20T12:00Z
TLE epoch observation values (Epoch: 2026-09-20T12:00:55.530Z)
Latitude
0.00001°
Longitude
108.6106°
Altitude
468.499 km
Speed
7.632 km/s
True Right ascension
19h 12m 56s
True Declination
0° 00' 00"
Sunlit
Object was in daylight at epoch
Visualization orbit readout
Latitude
Unknown
Longitude
Unknown
Altitude
Unknown
Speed
Unknown
Apparent Right ascension
Unknown
Apparent Declination
Unknown
Sunlit
N/A
Visualization observer readout
Local Sidereal Time
00:08:43
Azimuth
Unknown
Elevation
Unknown
Doppler factor
Unknown
Orbital elements
Apogee altitude
462.714 km
Perigee altitude
462.211 km
Semi-major axis
6,840.6 km
Eccentricity
0.00004
Inclination
97.2838°
RAAN
288.2359°
Arg. of periapsis
301.9407°
True anomaly
58.18358°
Mean anomaly
58.18°
Eccentric anomaly
58.18179°
Mean motion
3.83621 °/min
Orbital period
93.84 mins
BSTAR
0.00065219
Loading maneuver chart data...
Computing Atmospheric mass density...
Loading historical data...
Loading historical data...
Loading historical data...
Loading historical data...
Loading historical data...
Loading historical data...
Loading historical data...

Documentation

Showing up to 5 results
|